Location: Newark
(49.8969°N, 3.3422°E)
Time: 01:00:15
(UTC+00:00)

Explorer 7 - Pass Details

Date: 02 February 2020
Orbit: 485 x 679 km, 50.3° (Epoch: 20 February)

Event Time Altitude Azimuth Distance (km) Brightness Sun altitude
Rises 23:14:29 0° 281° (W) 2,570 - -55.6°
Reaches altitude 10° 23:16:41 10° 280° (W) 1,676 - -55.7°
Maximum altitude 23:20:26 78° 196° (SSW) 501 - -55.9°
Drops below altitude 10° 23:24:12 10° 109° (ESE) 1,673 - -56.1°
Sets 23:26:23 0° 108° (ESE) 2,565 - -56.1°
